Regional Weather Roundup
Issued by NWS

Home | Current Version | Previous Version | Graphics & Text | Print | Product List | Glossary On
Versions: 1 2 3 4 5 6 7 8 9 10 11 12 13 14 15 16 17 18 19 20 21 22 23 24 25 26 27 28 29 30 31 32 33 34 35 36 37 38 39 40 41 42 43 44 45 46 47 48 49 50
000
ASUS43 KFSD 301102
RWRSD

WEATHER ROUNDUP FOR SOUTH DAKOTA
NATIONAL WEATHER SERVICE SIOUX FALLS SD
600 AM CDT TUE MAY 30 2017

NOTE: "FAIR" INDICATES FEW OR NO CLOUDS BELOW 12,000 FEET WITH NO
SIGNIFICANT WEATHER AND/OR OBSTRUCTIONS TO VISIBILITY.


SDZ001>005-009-010-012>017-301200-
NORTHWEST AND NORTH CENTRAL SOUTH DAKOTA

CITY           SKY/WX    TMP DP  RH WIND       PRES   REMARKS
BUFFALO          N/A     43  31  62 NW7       30.05S
FAITH            N/A     43  32  65 W8        30.09R
MOBRIDGE       CLEAR     40  35  83 N7        30.04R
$$

SDZ012>016-024>037-041>051-057-063-072>074-301200-
SOUTHWEST AND SOUTH CENTRAL SOUTH DAKOTA

CITY           SKY/WX    TMP DP  RH WIND       PRES   REMARKS
RAPID CTY ARPT CLEAR     43  29  57 NW9       30.12S
PIERRE         CLEAR     41  34  76 W8        30.05
CUSTER         CLEAR     39  24  55 W3        30.17S
ELLSWORTH AFB  CLEAR     38  30  73 NW7       30.11S
PHILIP         CLEAR     38  33  82 W10       30.10R
PINE RIDGE     CLEAR     35  33  92 CALM      30.14R
SPEARFISH      FAIR      43  28  56 CALM      30.15S
WINNER         FAIR      47  35  63 SW7       30.08R
$$

SDZ004>011-016>023-039-040-301200-
NORTHEAST SOUTH DAKOTA

CITY           SKY/WX    TMP DP  RH WIND       PRES   REMARKS
ABERDEEN       CLEAR     46  37  71 NW9       30.01S
WATERTOWN      PTCLDY    47  41  80 NW9       29.98R
BROOKINGS      MOCLDY    45  41  86 W6        29.99S
SISSETON         N/A     48  41  76 NW12      29.96R
$$

SDZ017-020-022-023-036>040-048>070-301200-
SOUTHEAST SOUTH DAKOTA

CITY           SKY/WX    TMP DP  RH WIND       PRES   REMARKS
SIOUX FALLS    MOCLDY    51  43  74 W7        30.00R
HURON          CLEAR     41  37  86 W6        30.03R
MITCHELL       CLEAR     47  39  74 W12       30.03R
YANKTON        CLEAR     49  43  80 SW9       30.03S
$$

ABBREVIATIONS USED IN REMARKS
   TC - TEMPERATURE IN CELSIUS
  WCI - WIND CHILL INDEX
   HX - HEAT INDEX
  VSB - VISIBILITY




USA.gov is the U.S. government's official web portal to all federal, state and local government web resources and services.